Main page
Satellite images Climate Cyclones Lightning AirportsFAQ Languages Contact Newsletter About
Weather : Europe Africa North America South America Asia Australia-Oceania Others

1224, Nanning, Nanning Wuxu International Airport

59431

latitude: , longitude: China, elevation: 22-49N m


METAR: ZGNN 160900Z 01002MPS 5000 BR SCT020 OVC043 18/15 Q1014 NOSIG